This is the latest recevied weather packets stored in our database for station/object KG7MRB. If no packets are shown the sender has not sent any weather packets the latest 10 day(s).
| Time | Temp. | Humidity | Pressure | Rain* | Wind** | Luminosity | Snow |
|---|---|---|---|---|---|---|---|
| 1777973727 | 12.78° C | 82% | 1030.2 hPa | 0 mm | - | 0 W/m² | - |
| 1777973425 | 13.33° C | 80% | 1030.2 hPa | 0 mm | - | 0 W/m² | - |
| 1777973122 | 13.89° C | 78% | 1030.4 hPa | 0 mm | - | 0 W/m² | - |
| 1777972820 | 13.89° C | 76% | 1030.2 hPa | 0 mm | - | 0 W/m² | - |
| 1777972516 | 14.44° C | 76% | 1030 hPa | 0 mm | - | 0 W/m² | - |
| 1777972215 | 14.44° C | 75% | 1030 hPa | 0 mm | - | 0 W/m² | - |
| 1777971912 | 13.89° C | 74% | 1030.1 hPa | 0 mm | - | 0 W/m² | - |
| 1777971610 | 14.44° C | 76% | 1029.9 hPa | 0 mm | - | 0 W/m² | - |
| 1777971308 | 15° C | 73% | 1029.8 hPa | 0 mm | - | 0 W/m² | - |
| 1777971006 | 15.56° C | 70% | 1029.9 hPa | 0 mm | - | 0 W/m² | - |
| 1777970704 | 15.56° C | 68% | 1029.7 hPa | 0 mm | - | 0 W/m² | - |
| 1777970401 | 16.11° C | 67% | 1029.7 hPa | 0 mm | - | 0 W/m² | - |
| 1777970098 | 15.56° C | 68% | 1029.7 hPa | 0 mm | - | 0 W/m² | - |
| 1777969794 | 15.56° C | 71% | 1029.8 hPa | 0 mm | - | 0 W/m² | - |
| 1777969490 | 16.11° C | 69% | 1029.7 hPa | 0 mm | - | 0 W/m² | - |
| 1777969188 | 15.56° C | 69% | 1029.7 hPa | 0 mm | - | 0 W/m² | - |
| 1777968884 | 15.56° C | 70% | 1029.7 hPa | 0 mm | - | 0 W/m² | - |
| 1777968581 | 16.11° C | 70% | 1029.5 hPa | 0 mm | - | 0 W/m² | - |
| 1777968277 | 16.11° C | 69% | 1029.6 hPa | 0 mm | - | 0 W/m² | - |
| 1777967973 | 16.67° C | 68% | 1029.6 hPa | 0 mm | - | 0 W/m² | - |
| 1777967670 | 16.67° C | 67% | 1029.6 hPa | 0 mm | - | 0 W/m² | - |
| 1777967367 | 17.22° C | 65% | 1029.4 hPa | 0 mm | - | 0 W/m² | - |
| 1777967064 | 17.22° C | 65% | 1029.2 hPa | 0 mm | - | 0 W/m² | - |
| 1777966761 | 17.22° C | 64% | 1029.5 hPa | 0 mm | - | 0 W/m² | - |
| 1777966459 | 16.67° C | 66% | 1029.3 hPa | 0 mm | - | 0 W/m² | - |
* Rain latest hour (hover to see other rain measurements)
** Current wind speed in m/s (hover to see current wind gust speed)